Theta_e
352 352 347 346 347 345 345 341 331 325 327 336 333 337 338 336 336 334 336 329 329 326 324 324 325 326 328 330 332 333 334 333 333 335 336 336 336 335
353 349 349 346 349 347 345 343 339 333 325 332 334 337 338 338 334 335 335 330 327 324 324 323 321 322 324 326 327 329 330 329 328 330 331 331 331 330
349 347 346 349 348 345 343 342 337 335 328 330 335 338 335 333 334 333 333 333 331 323 323 322 319 319 321 322 323 324 325 325 325 326 327 327 326 326
347 346 347 350 348 345 342 339 336 337 331 327 332 332 332 333 333 331 331 333 333 325 320 319 316 315 316 317 318 319 319 320 322 323 324 324 325 324
346 347 348 348 346 343 343 340 337 336 336 331 330 332 331 332 331 331 331 330 333 325 320 319 317 317 316 316 314 314 314 314 315 317 320 321 322 324
349 349 348 347 345 344 341 338 336 334 333 330 330 330 328 331 330 326 323 328 328 332 324 323 319 319 317 315 315 315 312 311 312 314 312 314 315 317
350 350 348 343 336 340 341 338 336 334 331 330 327 327 326 326 325 327 324 325 327 328 329 325 324 324 320 316 320 317 311 310 312 312 311 310 309 311
348 348 346 332 329 322 319 322 332 335 331 329 328 325 325 326 328 326 325 321 319 326 327 326 330 326 326 327 317 312 309 311 311 311 309 308 307 307
348 345 342 340 330 327 317 319 316 319 323 332 328 327 326 329 327 325 325 321 320 325 325 320 327 324 327 323 310 308 307 309 309 310 310 307 306 304
347 345 342 338 336 335 332 331 330 328 327 330 332 331 331 332 329 329 327 325 325 325 326 317 322 320 322 320 307 307 306 306 306 307 308 306 304 302
346 345 342 338 315 314 333 330 330 324 309 308 307 306 307 305 315 327 324 322 320 321 325 321 319 318 320 319 314 307 305 305 305 304 305 304 303 303
343 340 318 334 305 308 334 332 328 327 325 324 323 316 316 314 310 326 325 322 319 318 324 321 320 318 316 320 317 312 311 304 306 305 304 304 303 308
338 334 328 305 304 303 314 333 328 329 321 326 326 325 326 324 325 327 327 325 321 320 324 325 321 321 319 317 319 317 317 313 312 307 301 302 301 307
335 334 316 300 299 301 314 300 304 317 327 325 323 323 323 323 324 326 325 326 326 324 325 324 323 322 321 318 317 320 319 320 317 317 316 309 301 301
333 314 298 297 298 302 299 300 305 325 323 320 318 320 320 321 323 324 326 326 325 325 327 326 325 324 323 320 318 320 318 320 322 320 320 319 318 313
307 312 311 310 310 309 311 311 326 325 322 321 320 321 322 320 319 322 321 323 322 323 327 328 328 327 323 323 322 320 320 317 321 322 322 322 321 322
318 321 322 322 320 321 322 323 325 324 322 323 322 320 320 320 319 321 321 322 320 319 319 325 327 327 327 324 321 322 322 321 323 322 321 321 323 324
323 322 320 320 320 321 321 321 323 320 324 323 323 321 320 319 318 320 322 321 320 320 321 321 323 321 322 324 322 321 321 321 322 323 323 320 319 321
325 321 319 319 320 320 322 323 323 323 324 323 322 321 321 319 315 321 322 321 320 320 320 320 320 319 314 313 322 308 320 320 320 320 318 317 316 319
325 321 319 319 322 323 325 325 324 325 324 322 322 321 322 320 319 319 320 319 319 319 320 320 320 320 316 314 315 319 300 318 316 318 320 321 315 298
323 322 321 322 324 324 326 324 324 324 323 323 322 321 321 319 318 318 318 300 309 317 316 317 318 296 321 320 314 315 318 300 309 318 318 316 316 317
322 322 321 323 325 326 326 322 321 321 321 321 322 321 321 320 319 318 320 319 319 320 319 321 320 318 315 314 313 315 317 320 302 301 302 306 313 312
323 321 322 323 326 327 326 325 323 323 323 322 322 322 322 319 320 320 318 318 319 319 319 317 317 317 315 315 310 315 316 313 317 314 307 300 299 300
Wind_Speed
13 9 8 5 4 4 3 3 4 1 3 5 3 3 5 5 6 5 5 10 8 7 8 9 8 8 9 11 12 11 11 11 11 11 13 14 14 16
10 11 9 7 6 4 4 3 3 3 3 2 1 3 5 6 5 2 4 8 8 9 8 9 8 7 7 9 10 10 10 10 10 14 16 17 16 16
12 11 13 9 6 4 4 3 3 3 3 2 3 3 3 4 4 1 3 3 4 9 9 8 8 8 8 9 9 10 11 11 13 15 16 15 17 16
13 13 13 9 9 6 5 6 4 3 3 4 3 2 2 4 3 3 2 3 3 7 8 7 6 6 5 7 8 9 11 13 14 15 15 15 17 16
15 14 12 11 9 5 4 5 4 3 3 3 4 3 3 4 3 2 2 1 1 4 5 7 7 7 8 9 8 10 13 14 13 12 16 16 15 14
15 14 11 11 9 8 6 5 2 3 3 3 3 3 3 3 3 3 2 3 2 2 1 6 7 7 6 6 8 9 12 15 16 15 12 12 12 11
14 13 10 9 11 9 5 5 6 5 3 3 3 3 3 3 5 3 3 3 1 0 3 3 4 4 3 4 4 10 12 14 16 15 13 11 11 11
12 11 8 9 10 15 12 5 6 6 4 4 3 3 5 4 3 4 3 2 3 3 3 1 3 3 4 4 8 9 12 14 14 14 13 11 11 10
12 10 8 8 12 10 8 10 9 8 5 5 4 4 4 6 5 4 5 4 2 2 3 2 2 3 1 3 9 10 10 11 12 13 12 11 10 9
11 11 9 11 10 11 9 7 6 5 5 3 4 4 3 3 6 7 6 5 5 2 2 3 1 2 2 3 5 9 10 10 11 11 11 11 10 10
11 10 9 10 12 12 8 7 6 6 6 10 9 8 5 0 5 4 4 6 3 3 3 3 2 2 1 1 2 6 10 11 11 10 10 10 10 10
10 8 10 10 15 11 6 7 6 8 8 6 4 4 4 2 3 3 4 4 3 2 4 4 3 3 2 2 2 2 3 4 8 9 11 11 11 4
9 7 4 15 16 12 6 5 5 7 6 5 4 3 3 3 2 1 1 3 2 2 4 4 3 4 3 3 2 3 4 3 4 5 6 7 8 8
11 8 7 14 12 11 7 10 13 9 4 4 3 3 3 3 2 2 2 2 2 3 3 5 2 4 4 3 3 3 4 4 5 4 5 7 11 12
9 13 16 16 15 11 12 12 9 6 5 4 3 2 2 2 3 2 2 3 2 3 3 4 3 2 3 3 4 4 4 6 6 7 6 7 7 6
18 11 11 10 8 10 6 4 4 5 5 4 4 4 3 2 2 2 1 3 2 3 5 7 8 8 3 4 4 3 5 5 8 8 8 8 8 8
14 10 8 8 8 6 6 5 4 5 4 3 4 5 4 3 3 2 2 4 4 4 3 4 5 6 5 3 3 4 6 4 5 7 9 9 9 9
10 9 8 7 7 7 7 6 5 6 5 3 4 5 5 5 3 3 5 3 3 3 4 4 4 3 2 4 7 4 3 3 4 5 6 6 5 4
9 8 7 7 7 6 6 6 6 5 5 5 4 4 3 5 4 5 4 4 4 3 3 2 2 3 4 4 2 2 1 3 3 2 4 4 3 3
9 9 8 6 6 6 5 5 6 6 6 5 5 5 4 3 3 2 3 3 3 1 1 2 1 1 2 1 2 1 1 1 2 3 2 2 2 8
8 7 7 7 5 5 3 4 5 6 6 6 5 4 4 3 2 2 2 3 3 1 2 0 1 1 4 2 2 3 2 5 6 1 1 1 2 2
7 7 6 6 5 5 4 4 4 5 4 3 4 4 4 4 4 3 3 3 3 3 3 4 4 3 2 2 1 1 3 3 6 6 8 3 1 2
7 6 6 6 5 3 5 7 6 6 6 5 5 5 5 3 3 3 3 2 3 1 1 3 3 2 2 2 1 1 3 4 4 1 2 8 8 8
Wind_Direction
226 220 220 246 207 210 196 186 186 238 240 216 143 172 121 120 153 187 191 182 181 202 211 216 215 214 204 201 204 195 201 205 194 170 160 157 157 152
217 210 212 218 229 191 196 189 192 174 235 151 119 143 123 120 148 258 105 158 187 204 211 216 214 216 206 200 197 189 194 198 173 162 159 163 164 162
207 198 215 212 214 187 200 171 219 213 191 47 106 101 71 103 147 90 139 206 190 211 218 210 209 211 206 201 193 182 188 175 163 161 163 160 160 167
209 206 207 204 208 191 174 196 205 221 149 137 139 138 174 168 169 171 228 297 341 185 219 230 216 206 193 188 187 185 175 172 172 166 162 163 167 177
213 208 196 192 195 179 182 193 201 152 151 150 154 144 152 163 150 150 192 234 134 154 198 211 209 195 196 198 195 193 182 179 171 177 170 172 176 181
208 202 191 189 188 185 176 198 249 161 163 126 120 130 147 132 157 165 177 223 227 219 126 173 174 173 182 192 204 197 187 176 178 179 172 172 172 175
197 188 189 182 179 165 161 185 189 199 176 139 143 137 172 142 192 196 183 181 176 194 176 162 156 151 139 180 198 194 182 181 180 171 166 176 172 181
184 180 169 154 156 128 110 144 193 176 178 141 168 177 199 192 169 178 155 171 210 232 196 149 143 154 143 185 177 178 181 181 171 162 165 169 175 186
172 169 160 160 137 129 119 110 86 92 112 161 176 198 194 192 169 188 202 182 210 161 151 94 12 83 298 143 152 166 167 169 160 160 170 165 178 190
168 169 170 154 154 153 154 151 149 151 152 181 189 196 201 222 179 190 188 157 94 130 185 136 140 97 18 58 128 155 159 157 153 159 171 176 185 197
159 173 165 148 157 165 161 167 166 119 71 89 92 94 110 51 244 153 181 160 148 162 198 113 138 111 108 87 114 154 165 161 164 172 181 185 192 199
158 158 165 160 159 177 167 163 155 153 151 136 113 87 124 104 160 134 146 176 127 126 186 145 137 141 144 155 152 154 160 187 195 196 197 197 194 180
162 150 130 152 160 157 138 139 151 138 121 135 136 136 142 142 176 128 152 148 150 93 178 152 153 166 137 145 177 170 190 161 177 186 202 203 188 203
154 146 130 133 128 126 110 127 126 119 122 118 137 157 159 154 168 178 188 104 150 141 131 229 179 167 168 145 184 154 189 181 177 203 186 199 211 212
125 119 122 117 113 91 122 131 135 127 145 146 144 130 134 121 94 75 81 106 225 239 198 183 216 291 208 183 187 162 149 197 195 202 203 206 212 205
103 114 123 110 97 113 113 147 143 148 156 148 154 160 141 154 175 167 159 170 220 230 219 203 208 215 249 204 200 162 185 187 195 208 211 221 224 221
115 123 128 128 123 143 144 169 158 144 162 207 137 139 148 160 176 186 248 217 238 203 207 183 187 191 213 222 207 210 196 216 186 202 203 223 225 227
119 128 131 134 151 156 158 166 170 177 161 136 154 160 163 174 187 218 222 221 234 256 248 191 163 203 232 258 201 233 218 202 203 182 188 214 234 196
130 129 136 155 152 160 176 166 170 169 164 165 159 166 183 172 191 202 192 202 216 238 222 206 170 199 218 236 129 99 253 272 233 212 184 196 218 227
122 137 145 165 159 175 154 166 167 149 151 153 154 170 180 170 183 234 194 214 216 260 37 13 194 238 43 57 9 78 200 355 9 291 265 290 104 108
126 130 139 160 177 148 153 157 142 151 153 164 162 147 142 183 181 251 310 30 96 74 317 290 97 191 66 21 17 3 339 220 236 228 47 36 289 226
109 128 139 156 171 148 158 136 121 128 130 137 141 138 155 175 182 206 236 182 199 197 205 93 120 95 82 132 215 286 342 313 52 87 40 45 221 272
123 132 156 164 156 168 149 147 156 156 156 169 157 161 168 173 176 197 205 214 218 350 95 175 154 139 204 207 176 286 352 359 341 149 78 29 33 35